Volver al catálogo

COSMOS 2429

ActivoNavegaciónPO
NORAD 32052·PAYLOAD·🇷🇺 Russia

Lanzado Sep 11, 2007 desde Plesetsk Cosmodrome

Loading…

Próximos Pases (próximas 24 horas)

TLE

ActualizadoSource: Space-Track

Época: Sep 14, 2026, 09:46 UTC

1 32052U 07038A   26257.40695141  .00000054  00000-0  40667-4 0  9998
2 32052  82.9817 140.1494 0038204 348.2988  11.7276 13.75173906953914

Sigue COSMOS 2429 en tiempo real con AllMySat

Download on the App Store